Flag for U.S.A. Weather past 2 weeks in Fairbanks, Alaska, U.S.A.

Now
57 °F

Scattered clouds.


Feels Like: 54 °F
Forecast: 38 / 51 °F
Wind: 15 mph from Northeast

Location: Wainwright U. S. Army Airfield

Current Time: Apr 27, 2015 at 7:53:53 PM

Latest Report: Apr 27, 2015 at 6:55 PM


Visibility: 25 mi

Pressure: 29.56 "Hg

Humidity: 29%

Dew point: 25 °F

Location of FairbanksLocation

Historic Weather in Fairbanks — Graph

°F

Fairbanks temperature yesterday

Maximum temperature yesterday: 59 °F (at 1:56 PM)
Minimum temperature yesterday: 32 °F (at 5:56 AM)
Average temperature yesterday: 47 °F

Past Weeks' High & Low Weather Summary

 TemperatureHumidityPressure
High63 °F (Apr 27, 3:55 PM)86% (Apr 14, 6:55 AM)30.04 "Hg (Apr 14, 6:55 AM)
Low19 °F (Apr 14, 6:55 AM)15% (Apr 23, 4:55 PM)29.33 "Hg (Apr 19, 10:56 AM)
Average41 °F45%29.67 "Hg
* Reported Apr 12 5:56 PM — Apr 27 5:55 PM, Fairbanks, Weather by CustomWeather, © 2015

Note: Actual official high and low records may vary slightly from our data, if they occured in-between our weather recording intervals... More about our weather records

Advertising

Fairbanks weather history for previous 24 hours

 ConditionsComfort  
Time TempWeatherWind HumidityBarometerVisibility
5:55 PM
Mon, Apr 27
61 °FBroken clouds.14 mph25%29.56 "Hg25 mi
4:55 PM61 °FBroken clouds.14 mph23%29.55 "Hg25 mi
3:55 PM63 °FBroken clouds.10 mph20%29.55 "Hg25 mi
2:55 PM61 °FBroken clouds.5 mph25%29.56 "Hg25 mi
1:55 PM61 °FBroken clouds.8 mph27%29.57 "Hg25 mi
12:55 PM61 °FBroken clouds.5 mph27%29.57 "Hg25 mi
11:55 AM57 °FBroken clouds.8 mph31%29.58 "Hg25 mi
10:55 AM54 °FBroken clouds.9 mph38%29.59 "Hg25 mi
9:55 AM54 °FBroken clouds.No wind38%29.59 "Hg25 mi
8:55 AM48 °FBroken clouds.No wind43%29.60 "Hg25 mi
7:55 AM45 °FPartly sunny.3 mph49%29.59 "Hg25 mi
6:55 AM43 °FPartly sunny.3 mph53%29.59 "Hg25 mi
5:56 AM39 °FOvercast.3 mph62%29.59 "Hg10 mi
4:56 AM36 °FPassing clouds.3 mph64%29.59 "Hg10 mi
3:56 AM38 °FPassing clouds.No wind63%29.59 "Hg10 mi
2:56 AM45 °FOvercast.No wind45%29.59 "Hg10 mi
1:56 AM46 °FOvercast.No wind46%29.59 "Hg10 mi
12:56 AM46 °FOvercast.7 mph44%29.59 "Hg10 mi
11:56 PM
Sun, Apr 26
48 °FOvercast.9 mph43%29.59 "Hg10 mi
10:56 PM49 °FOvercast.8 mph39%29.59 "Hg10 mi
9:56 PM50 °FPartly sunny.7 mph38%29.60 "Hg10 mi
8:56 PM54 °FOvercast.12 mph31%29.59 "Hg10 mi
7:56 PM55 °FPassing clouds.16 mph30%29.60 "Hg10 mi
Weather by CustomWeather, © 2015

See weather overviewHow to use our weather pages